SCP
0 0 0 0 0 0 0 0 0 0 0 -0 -0 -0 -0 -0 -0 -0 -0 -0 -0 -0 -0 -0 -0 -0 -0 -0 -0 -0 -0 -0 -0 -0 -0 -0 -0 -0 -0 -0 -0 -0 -0
-0 0 0 0 0 0 0 0 0 0 0 0 0 0 -0 -0 -0 -0 -0 -0 -0 -0 -0 -0 -0 -0 -0 -0 -0 -0 -0 -0 -0 -0 -0 -0 -0 -0 -0 -0 -0 0 -0
-0 -0 0 0 0 0 0 0 0 0 0 0 0 0 0 -0 -0 -0 -0 -0 -0 -0 -0 -0 -0 -0 -0 -0 -0 -0 -0 -0 -0 -0 -0 -0 0 -0 -0 -0 -0 -0 -0
0 0 0 -0 -0 -0 0 0 0 0 0 0 0 0 0 0 -0 -0 -0 -0 -0 -0 -0 -0 -0 -0 -0 -0 -0 -0 -0 -0 -0 -0 -0 -0 0 -0 -0 -0 -0 -0 -0
0 0 0 -0 -0 -0 -0 0 -0 -0 -0 -0 -0 -0 -0 -0 -0 -0 -0 -0 -0 -0 -0 -0 0 -0 -0 -0 -0 -0 -0 -0 -0 -0 -0 0 0 -0 -0 -0 -0 -0 -0
0 0 -0 -0 -0 -0 0 0 -0 -0 -0 -0 -0 -0 -0 -0 -0 -0 -0 -0 -0 -0 -0 -0 -0 0 -0 -0 -0 0 -0 -0 -0 -0 -0 -0 0 -0 -0 -0 -0 -0 -0
0 0 0 0 0 0 0 0 -0 -0 -0 -0 -0 -0 -0 -0 -0 -0 -0 -0 -0 0 0 -0 -0 -0 -0 -0 -0 -0 -0 -0 -0 -0 -0 0 0 -0 -0 -0 -0 -0 -0
0 0 0 0 0 0 0 0 -0 -0 -0 -0 -0 -0 -0 -0 -0 -0 -0 0 0 -0 -0 -0 -0 0 0 0 -0 -0 -0 -0 0 -0 -0 0 -0 -0 -0 -0 -0 -0 -0
0 0 0 0 0 0 0 0 0 -0 -0 -0 -0 -0 -0 -0 -0 -0 -0 0 -0 -0 -0 0 0 0 0 0 -0 -0 -0 -0 -0 -0 -0 0 -0 -0 -0 -0 -0 -0 -0
0 0 0 0 0 0 0 0 0 -0 -0 -0 -0 -0 -0 -0 -0 0 -0 -0 -0 -0 0 0 0 0 0 0 -0 -0 -0 -0 -0 -0 0 -0 -0 -0 -0 -0 -0 -0 -0
0 -0 -0 -0 0 0 0 0 0 0 -0 0 0 0 0 0 0 0 0 0 0 0 -0 0 0 0 0 0 -0 -0 -0 0 -0 -0 0 -0 -0 -0 -0 -0 -0 -0 -0
-0 -0 -0 -0 -0 0 0 0 0 0 0 -0 -0 0 0 0 0 0 0 0 0 0 0 0 0 0 0 0 0 -0 0 0 -0 -0 0 -0 -0 -0 -0 -0 -0 -0 -0
-0 -0 -0 -0 -0 -0 0 0 0 -0 -0 -0 -0 -0 0 0 0 0 0 0 0 0 0 0 0 0 0 0 0 0 0 -0 0 0 -0 -0 -0 -0 -0 -0 -0 -0 -0
0 0 -0 -0 -0 -0 -0 -0 -0 -0 -0 -0 -0 -0 -0 -0 0 -0 0 0 0 0 0 0 0 0 0 0 0 -0 -0 -0 0 0 -0 -0 -0 -0 -0 -0 -0 -0 -0
0 0 -0 -0 -0 -0 -0 -0 -0 -0 -0 -0 -0 -0 -0 -0 -0 -0 0 0 0 0 0 0 0 0 0 -0 -0 -0 -0 -0 -0 0 0 -0 -0 -0 -0 -0 -0 -0 -0
0 0 0 -0 0 -0 -0 -0 -0 -0 -0 -0 -0 -0 -0 0 0 0 0 0 0 0 0 0 0 0 0 -0 -0 -0 -0 -0 -0 0 0 -0 -0 -0 -0 -0 -0 -0 -0
0 0 0 0 -0 0 -0 -0 -0 0 0 -0 0 0 0 0 0 0 0 0 0 0 0 0 0 0 -0 -0 -0 -0 -0 -0 0 0 0 0 0 -0 -0 -0 -0 -0 0
0 0 0 0 -0 0 0 0 0 0 0 0 0 0 0 0 0 0 0 0 0 0 0 0 0 0 0 0 0 0 0 0 0 0 0 0 0 0 0 -0 0 0 0
0 0 0 0 0 0 0 0 0 0 0 0 0 0 0 0 0 0 0 0 0 0 0 0 0 0 0 0 0 0 0 0 0 0 0 0 0 0 0 0 0 0 0
0 -0 -0 0 0 0 0 0 0 0 0 0 0 0 0 0 0 0 0 0 0 0 0 0 0 0 0 0 0 0 0 0 0 0 0 0 0 0 0 0 0 0 0
0 -0 -0 -0 0 0 0 0 0 0 0 0 0 0 0 0 0 0 0 0 0 0 0 0 0 0 0 0 0 0 0 0 0 0 0 0 0 0 0 0 0 0 0
0 0 -0 -0 0 0 0 0 0 0 0 0 0 0 0 0 0 0 0 0 0 0 0 0 0 0 0 0 0 0 0 0 0 0 0 0 0 0 0 0 0 0 0
0 0 -0 -0 0 0 0 0 0 0 0 0 0 0 0 0 0 0 0 0 0 0 0 0 0 0 0 0 0 0 0 0 0 0 0 0 0 0 0 0 0 0 0
0 0 0 -0 -0 0 0 0 0 0 0 0 0 0 0 0 0 0 0 0 0 0 0 0 0 0 0 0 0 0 0 0 0 0 0 0 0 0 0 0 0 0 0
0 0 0 0 0 0 0 0 0 0 0 0 0 0 0 0 0 0 0 0 0 0 0 0 0 0 0 0 0 0 0 0 0 0 0 0 0 0 0 0 0 0 0
0 0 0 0 0 -0 0 0 0 0 0 0 0 0 0 0 0 0 0 0 0 0 0 0 0 0 0 0 0 0 0 0 0 0 0 0 0 0 0 0 0 0 0
Wind_Speed_500mb
36 35 36 37 37 36 36 37 39 40 40 43 45 43 44 41 43 43 41 39 39 39 40 41 44 46 48 54 53 51 50 50 50 48 49 45 42 42 39 40 41 43 42
44 39 38 39 39 40 41 42 42 42 43 43 39 40 38 39 42 42 42 40 40 41 40 41 45 45 50 49 49 46 43 40 41 41 40 40 36 36 33 35 39 39 36
50 43 41 40 40 43 44 45 45 44 40 38 37 37 37 39 40 41 43 41 41 40 39 39 43 49 49 48 42 38 36 33 31 37 39 41 42 41 41 37 36 36 36
48 46 45 45 47 50 50 42 36 39 33 34 33 35 37 39 38 37 36 37 38 38 35 42 46 49 46 42 40 36 29 21 22 34 41 43 42 40 39 40 40 41 40
49 48 47 46 48 47 37 38 34 33 37 36 36 36 38 40 38 36 35 34 35 36 37 39 41 42 43 38 38 33 26 22 27 35 38 43 40 39 40 40 40 40 39
51 50 48 47 46 45 44 41 34 36 39 38 36 35 35 33 33 34 34 31 28 29 34 37 39 41 42 36 36 29 29 32 33 33 35 39 41 39 39 39 38 37 37
53 50 48 46 46 45 44 42 37 38 40 39 34 33 34 33 33 33 32 30 30 31 32 32 37 40 42 42 39 26 20 22 27 31 35 38 38 37 36 36 37 39 38
56 53 49 46 46 46 44 41 38 37 40 36 34 35 34 32 31 30 29 29 29 32 32 31 34 35 37 34 28 19 15 27 29 31 35 37 35 35 36 38 38 37 36
54 55 51 47 44 43 40 37 36 39 38 38 41 37 34 30 27 29 31 30 31 32 30 35 35 35 37 36 28 17 17 22 25 30 32 34 34 36 36 36 35 35 34
53 51 48 46 46 43 41 38 34 37 38 37 38 34 33 29 28 27 26 28 29 28 31 35 34 35 39 36 27 15 19 22 24 27 32 34 33 33 34 33 34 33 35
51 50 48 48 46 46 47 41 37 35 34 33 33 32 32 28 27 27 25 25 26 26 28 30 32 34 34 32 24 14 14 21 23 27 31 31 31 31 31 32 33 35 36
53 47 49 46 53 51 47 42 39 34 38 34 28 24 24 27 27 25 26 25 25 25 26 27 26 27 28 25 20 10 12 18 22 24 29 28 29 29 29 31 32 32 30
55 47 45 50 51 49 47 38 36 38 37 31 25 23 23 25 24 23 25 24 23 23 20 18 18 18 17 21 22 10 14 18 19 20 23 24 26 27 28 29 28 30 30
54 43 48 48 48 44 38 36 35 35 31 26 23 20 24 26 23 20 24 21 19 18 17 18 18 18 18 19 20 13 9 15 17 18 19 20 22 25 26 27 27 28 29
51 47 44 52 44 44 35 35 30 21 25 24 24 25 21 21 22 16 14 18 17 16 15 16 17 18 20 19 18 12 9 12 14 16 17 20 22 22 23 24 24 27 30
57 54 53 53 49 41 34 33 31 19 21 18 28 23 17 27 24 20 20 18 20 15 17 14 14 14 16 14 16 12 7 10 12 15 18 19 20 20 21 21 23 26 29
60 57 54 52 52 45 37 39 33 24 17 20 26 23 18 21 19 22 20 16 15 15 15 15 16 16 16 16 14 14 10 10 12 14 17 17 17 17 19 21 23 26 29
60 56 54 45 53 47 49 41 36 32 23 21 21 26 23 20 16 16 16 15 17 17 17 17 17 16 14 15 15 16 15 11 11 14 14 15 14 15 18 19 22 25 28
63 56 54 54 50 50 46 44 38 34 27 24 18 29 27 23 16 12 11 12 17 17 17 16 17 16 14 13 15 18 15 11 10 10 8 10 10 13 15 17 20 23 28
63 57 58 55 50 52 53 46 41 38 31 27 19 16 27 24 22 16 16 13 15 16 17 17 15 14 14 16 17 17 16 13 13 13 8 6 3 10 14 18 22 25 28
67 65 59 60 54 56 56 53 46 45 38 33 28 22 21 26 28 23 21 14 18 17 17 16 17 16 17 18 20 23 20 14 10 8 8 4 2 6 14 17 20 23 28
74 68 72 68 63 58 57 54 52 49 45 42 36 28 23 25 28 29 18 20 20 17 15 15 17 20 23 23 21 19 19 18 17 13 7 7 6 7 13 16 19 21 25
80 77 73 74 69 63 56 54 56 52 48 55 47 39 34 29 25 29 24 24 22 19 18 18 20 21 23 27 25 12 11 10 23 20 15 14 11 12 16 18 19 21 27
78 68 62 75 75 71 62 65 63 63 62 55 49 43 42 35 32 27 26 23 23 21 19 18 20 22 24 27 31 29 15 13 15 17 21 16 14 14 16 20 21 22 28
77 70 60 64 76 79 72 70 67 62 57 51 48 46 45 42 37 35 26 25 25 22 20 19 20 23 23 26 30 34 28 23 20 13 18 23 20 16 16 20 20 21 29
78 73 68 59 62 73 80 77 70 63 58 59 54 52 51 48 48 44 32 28 27 27 24 22 20 22 23 24 26 27 28 28 27 23 19 22 19 17 17 21 24 24 33
Wind_Direction_500mb
158 149 135 131 133 131 129 124 121 119 119 119 118 112 108 107 106 104 102 99 100 101 101 102 102 99 95 90 88 86 86 88 89 90 91 90 92 89 86 85 83 82 81
149 142 135 132 134 132 130 125 121 119 120 119 115 110 112 112 109 109 103 95 102 103 100 104 102 100 98 94 92 89 87 90 95 94 94 94 88 87 85 79 76 74 74
151 146 137 136 136 134 127 123 119 117 116 116 113 112 116 112 109 107 106 108 108 106 108 105 107 107 105 102 95 91 84 79 91 98 95 82 75 72 74 75 75 72 70
149 144 136 137 136 132 128 123 116 116 116 114 117 117 113 111 110 110 108 107 104 104 102 107 110 110 108 104 99 86 75 70 71 91 86 82 76 72 72 72 71 72 72
144 139 135 138 138 137 139 132 135 130 136 130 124 117 112 111 114 110 108 106 107 106 104 106 109 109 108 101 91 80 73 92 86 80 81 82 79 73 73 75 75 75 75
141 139 138 138 135 133 132 129 131 130 137 128 121 119 121 118 113 108 104 105 105 104 106 108 110 110 108 97 93 84 69 76 71 76 78 76 77 77 77 77 76 76 75
142 140 140 141 139 138 132 130 129 135 135 133 127 122 121 117 109 106 104 103 104 104 103 109 111 114 113 103 98 92 70 59 70 79 79 79 80 79 79 77 74 72 72
144 141 140 140 139 137 133 130 131 136 139 135 132 128 124 119 114 110 107 105 104 103 101 107 114 114 118 118 113 100 80 68 72 81 81 82 81 80 75 73 72 70 67
149 144 142 142 140 134 128 126 131 126 129 131 131 126 122 120 117 114 110 107 105 103 99 98 106 108 114 117 112 103 66 56 75 83 85 84 79 75 73 70 69 68 66
152 149 146 149 149 144 138 133 135 137 134 131 133 134 130 125 117 112 109 107 107 104 100 101 106 106 110 111 107 98 77 70 80 84 83 79 78 76 74 72 70 68 63
151 152 150 151 150 141 141 144 143 141 136 125 122 124 122 121 120 116 115 114 112 109 106 105 107 107 117 115 111 98 71 70 77 80 84 82 81 79 77 75 71 66 59
153 154 157 156 145 144 145 147 144 138 133 131 131 127 119 120 125 127 123 119 114 112 113 115 117 120 124 121 123 130 80 78 80 83 85 85 82 79 78 74 69 62 52
156 160 165 155 150 151 147 150 141 142 140 137 138 127 122 127 126 127 125 123 121 120 122 121 123 114 106 114 129 117 85 83 83 89 88 87 86 82 78 73 64 48 42
165 172 162 156 157 152 146 146 143 145 151 144 138 143 140 133 122 127 132 130 123 122 118 110 127 133 128 126 123 133 101 83 89 96 95 91 87 82 73 64 49 42 37
170 178 174 162 160 152 157 153 156 152 155 154 150 149 151 140 141 140 136 134 134 137 144 132 129 125 132 134 132 139 118 96 96 101 98 91 87 79 69 54 46 39 32
178 181 175 167 163 156 162 157 163 157 153 155 152 152 159 167 173 173 162 160 164 165 152 154 143 141 131 134 131 141 128 105 107 106 107 107 95 75 59 50 44 36 27
179 181 179 179 163 168 162 160 164 161 176 158 162 167 162 173 175 179 181 178 176 166 165 152 148 142 144 141 144 141 151 134 123 122 121 110 89 72 55 47 39 30 22
181 182 181 178 172 169 166 165 165 173 172 169 161 156 159 162 170 176 176 165 169 165 162 157 155 155 156 144 146 146 148 143 135 132 127 105 89 65 50 42 33 25 18
190 185 186 181 180 179 178 174 174 179 174 177 177 177 173 172 183 183 182 180 173 170 167 170 167 164 164 155 153 146 154 158 149 136 119 101 83 50 38 33 28 21 14
188 190 191 187 187 187 178 179 179 176 179 180 190 179 189 184 164 176 178 174 171 174 176 171 181 170 167 160 163 157 161 165 157 154 159 137 83 36 24 17 13 11 8
195 195 192 192 193 193 189 181 185 185 179 183 185 186 195 192 175 183 200 196 183 180 186 180 180 184 183 167 167 161 162 172 178 184 177 173 169 20 12 7 3 360 358
199 196 198 194 198 199 197 193 193 192 197 191 184 195 203 191 195 202 205 205 202 199 200 203 198 190 192 180 169 161 166 185 196 205 212 247 271 335 349 352 352 349 349
201 202 206 201 200 201 199 200 196 203 199 196 200 200 203 201 215 216 219 211 207 209 212 211 215 206 208 201 192 181 178 197 190 207 228 258 277 308 326 335 338 339 343
203 203 209 204 201 198 203 204 206 203 202 207 204 210 209 207 213 229 215 217 217 219 217 217 223 222 212 213 210 209 213 200 181 186 214 228 257 279 310 319 326 327 338
200 207 207 208 207 202 204 210 213 215 219 218 208 217 207 211 215 228 227 220 217 222 222 225 226 227 221 213 214 216 219 217 209 203 201 216 230 259 291 309 313 315 329
204 206 204 210 209 207 207 215 220 223 222 215 213 218 213 214 212 223 237 226 223 225 224 228 231 227 225 219 216 215 219 213 216 213 215 211 225 254 276 297 300 310 326
Wind_Speed_850mb
36 35 36 37 37 36 36 37 39 40 40 43 45 43 44 41 43 43 41 39 39 39 40 41 44 46 48 54 53 51 50 50 50 48 49 45 42 42 39 40 41 43 42
44 39 38 39 39 40 41 42 42 42 43 43 39 40 38 39 42 42 42 40 40 41 40 41 45 45 50 49 49 46 43 40 41 41 40 40 36 36 33 35 39 39 36
50 43 41 40 40 43 44 45 45 44 40 38 37 37 37 39 40 41 43 41 41 40 39 39 43 49 49 48 42 38 36 33 31 37 39 41 42 41 41 37 36 36 36
48 46 45 45 47 50 50 42 36 39 33 34 33 35 37 39 38 37 36 37 38 38 35 42 46 49 46 42 40 36 29 21 22 34 41 43 42 40 39 40 40 41 40
49 48 47 46 48 47 37 38 34 33 37 36 36 36 38 40 38 36 35 34 35 36 37 39 41 42 43 38 38 33 26 22 27 35 38 43 40 39 40 40 40 40 39
51 50 48 47 46 45 44 41 34 36 39 38 36 35 35 33 33 34 34 31 28 29 34 37 39 41 42 36 36 29 29 32 33 33 35 39 41 39 39 39 38 37 37
53 50 48 46 46 45 44 42 37 38 40 39 34 33 34 33 33 33 32 30 30 31 32 32 37 40 42 42 39 26 20 22 27 31 35 38 38 37 36 36 37 39 38
56 53 49 46 46 46 44 41 38 37 40 36 34 35 34 32 31 30 29 29 29 32 32 31 34 35 37 34 28 19 15 27 29 31 35 37 35 35 36 38 38 37 36
54 55 51 47 44 43 40 37 36 39 38 38 41 37 34 30 27 29 31 30 31 32 30 35 35 35 37 36 28 17 17 22 25 30 32 34 34 36 36 36 35 35 34
53 51 48 46 46 43 41 38 34 37 38 37 38 34 33 29 28 27 26 28 29 28 31 35 34 35 39 36 27 15 19 22 24 27 32 34 33 33 34 33 34 33 35
51 50 48 48 46 46 47 41 37 35 34 33 33 32 32 28 27 27 25 25 26 26 28 30 32 34 34 32 24 14 14 21 23 27 31 31 31 31 31 32 33 35 36
53 47 49 46 53 51 47 42 39 34 38 34 28 24 24 27 27 25 26 25 25 25 26 27 26 27 28 25 20 10 12 18 22 24 29 28 29 29 29 31 32 32 30
55 47 45 50 51 49 47 38 36 38 37 31 25 23 23 25 24 23 25 24 23 23 20 18 18 18 17 21 22 10 14 18 19 20 23 24 26 27 28 29 28 30 30
54 43 48 48 48 44 38 36 35 35 31 26 23 20 24 26 23 20 24 21 19 18 17 18 18 18 18 19 20 13 9 15 17 18 19 20 22 25 26 27 27 28 29
51 47 44 52 44 44 35 35 30 21 25 24 24 25 21 21 22 16 14 18 17 16 15 16 17 18 20 19 18 12 9 12 14 16 17 20 22 22 23 24 24 27 30
57 54 53 53 49 41 34 33 31 19 21 18 28 23 17 27 24 20 20 18 20 15 17 14 14 14 16 14 16 12 7 10 12 15 18 19 20 20 21 21 23 26 29
60 57 54 52 52 45 37 39 33 24 17 20 26 23 18 21 19 22 20 16 15 15 15 15 16 16 16 16 14 14 10 10 12 14 17 17 17 17 19 21 23 26 29
60 56 54 45 53 47 49 41 36 32 23 21 21 26 23 20 16 16 16 15 17 17 17 17 17 16 14 15 15 16 15 11 11 14 14 15 14 15 18 19 22 25 28
63 56 54 54 50 50 46 44 38 34 27 24 18 29 27 23 16 12 11 12 17 17 17 16 17 16 14 13 15 18 15 11 10 10 8 10 10 13 15 17 20 23 28
63 57 58 55 50 52 53 46 41 38 31 27 19 16 27 24 22 16 16 13 15 16 17 17 15 14 14 16 17 17 16 13 13 13 8 6 3 10 14 18 22 25 28
67 65 59 60 54 56 56 53 46 45 38 33 28 22 21 26 28 23 21 14 18 17 17 16 17 16 17 18 20 23 20 14 10 8 8 4 2 6 14 17 20 23 28
74 68 72 68 63 58 57 54 52 49 45 42 36 28 23 25 28 29 18 20 20 17 15 15 17 20 23 23 21 19 19 18 17 13 7 7 6 7 13 16 19 21 25
80 77 73 74 69 63 56 54 56 52 48 55 47 39 34 29 25 29 24 24 22 19 18 18 20 21 23 27 25 12 11 10 23 20 15 14 11 12 16 18 19 21 27
78 68 62 75 75 71 62 65 63 63 62 55 49 43 42 35 32 27 26 23 23 21 19 18 20 22 24 27 31 29 15 13 15 17 21 16 14 14 16 20 21 22 28
77 70 60 64 76 79 72 70 67 62 57 51 48 46 45 42 37 35 26 25 25 22 20 19 20 23 23 26 30 34 28 23 20 13 18 23 20 16 16 20 20 21 29
78 73 68 59 62 73 80 77 70 63 58 59 54 52 51 48 48 44 32 28 27 27 24 22 20 22 23 24 26 27 28 28 27 23 19 22 19 17 17 21 24 24 33
Wind_Direction_850mb
158 149 135 131 133 131 129 124 121 119 119 119 118 112 108 107 106 104 102 99 100 101 101 102 102 99 95 90 88 86 86 88 89 90 91 90 92 89 86 85 83 82 81
149 142 135 132 134 132 130 125 121 119 120 119 115 110 112 112 109 109 103 95 102 103 100 104 102 100 98 94 92 89 87 90 95 94 94 94 88 87 85 79 76 74 74
151 146 137 136 136 134 127 123 119 117 116 116 113 112 116 112 109 107 106 108 108 106 108 105 107 107 105 102 95 91 84 79 91 98 95 82 75 72 74 75 75 72 70
149 144 136 137 136 132 128 123 116 116 116 114 117 117 113 111 110 110 108 107 104 104 102 107 110 110 108 104 99 86 75 70 71 91 86 82 76 72 72 72 71 72 72
144 139 135 138 138 137 139 132 135 130 136 130 124 117 112 111 114 110 108 106 107 106 104 106 109 109 108 101 91 80 73 92 86 80 81 82 79 73 73 75 75 75 75
141 139 138 138 135 133 132 129 131 130 137 128 121 119 121 118 113 108 104 105 105 104 106 108 110 110 108 97 93 84 69 76 71 76 78 76 77 77 77 77 76 76 75
142 140 140 141 139 138 132 130 129 135 135 133 127 122 121 117 109 106 104 103 104 104 103 109 111 114 113 103 98 92 70 59 70 79 79 79 80 79 79 77 74 72 72
144 141 140 140 139 137 133 130 131 136 139 135 132 128 124 119 114 110 107 105 104 103 101 107 114 114 118 118 113 100 80 68 72 81 81 82 81 80 75 73 72 70 67
149 144 142 142 140 134 128 126 131 126 129 131 131 126 122 120 117 114 110 107 105 103 99 98 106 108 114 117 112 103 66 56 75 83 85 84 79 75 73 70 69 68 66
152 149 146 149 149 144 138 133 135 137 134 131 133 134 130 125 117 112 109 107 107 104 100 101 106 106 110 111 107 98 77 70 80 84 83 79 78 76 74 72 70 68 63
151 152 150 151 150 141 141 144 143 141 136 125 122 124 122 121 120 116 115 114 112 109 106 105 107 107 117 115 111 98 71 70 77 80 84 82 81 79 77 75 71 66 59
153 154 157 156 145 144 145 147 144 138 133 131 131 127 119 120 125 127 123 119 114 112 113 115 117 120 124 121 123 130 80 78 80 83 85 85 82 79 78 74 69 62 52
156 160 165 155 150 151 147 150 141 142 140 137 138 127 122 127 126 127 125 123 121 120 122 121 123 114 106 114 129 117 85 83 83 89 88 87 86 82 78 73 64 48 42
165 172 162 156 157 152 146 146 143 145 151 144 138 143 140 133 122 127 132 130 123 122 118 110 127 133 128 126 123 133 101 83 89 96 95 91 87 82 73 64 49 42 37
170 178 174 162 160 152 157 153 156 152 155 154 150 149 151 140 141 140 136 134 134 137 144 132 129 125 132 134 132 139 118 96 96 101 98 91 87 79 69 54 46 39 32
178 181 175 167 163 156 162 157 163 157 153 155 152 152 159 167 173 173 162 160 164 165 152 154 143 141 131 134 131 141 128 105 107 106 107 107 95 75 59 50 44 36 27
179 181 179 179 163 168 162 160 164 161 176 158 162 167 162 173 175 179 181 178 176 166 165 152 148 142 144 141 144 141 151 134 123 122 121 110 89 72 55 47 39 30 22
181 182 181 178 172 169 166 165 165 173 172 169 161 156 159 162 170 176 176 165 169 165 162 157 155 155 156 144 146 146 148 143 135 132 127 105 89 65 50 42 33 25 18
190 185 186 181 180 179 178 174 174 179 174 177 177 177 173 172 183 183 182 180 173 170 167 170 167 164 164 155 153 146 154 158 149 136 119 101 83 50 38 33 28 21 14
188 190 191 187 187 187 178 179 179 176 179 180 190 179 189 184 164 176 178 174 171 174 176 171 181 170 167 160 163 157 161 165 157 154 159 137 83 36 24 17 13 11 8
195 195 192 192 193 193 189 181 185 185 179 183 185 186 195 192 175 183 200 196 183 180 186 180 180 184 183 167 167 161 162 172 178 184 177 173 169 20 12 7 3 360 358
199 196 198 194 198 199 197 193 193 192 197 191 184 195 203 191 195 202 205 205 202 199 200 203 198 190 192 180 169 161 166 185 196 205 212 247 271 335 349 352 352 349 349
201 202 206 201 200 201 199 200 196 203 199 196 200 200 203 201 215 216 219 211 207 209 212 211 215 206 208 201 192 181 178 197 190 207 228 258 277 308 326 335 338 339 343
203 203 209 204 201 198 203 204 206 203 202 207 204 210 209 207 213 229 215 217 217 219 217 217 223 222 212 213 210 209 213 200 181 186 214 228 257 279 310 319 326 327 338
200 207 207 208 207 202 204 210 213 215 219 218 208 217 207 211 215 228 227 220 217 222 222 225 226 227 221 213 214 216 219 217 209 203 201 216 230 259 291 309 313 315 329
204 206 204 210 209 207 207 215 220 223 222 215 213 218 213 214 212 223 237 226 223 225 224 228 231 227 225 219 216 215 219 213 216 213 215 211 225 254 276 297 300 310 326